sat.trackr.live / text

‹ back to catalog

STARLINK-31452

NORAD 59527 · 2024-073S

PAYLOAD ACTIVE UNKNOWN

§ Identity

Operator
Country
US
Launch date
2024-04-17
Launch site
AFETR
Launch vehicle
Mass (kg)
RCS (m²)

Purposes: comms

External: N2YO · Heavens-Above · Gunter

§ Orbital elements

Epoch: 2026-09-21T03:18:52.736832Z

Period
94.25 min
Inclination
43.0048°
Eccentricity
0.0002371
Mean motion
15.27782347 rev/d
Perigee alt
480.8 km
Apogee alt
484.1 km
Semi-major
6,860.6 km
B*
1.0617e-3
RAAN
294.5084°
Arg perigee
217.9636°
Mean anomaly
142.1049°
Rev number
13,606

§ Raw data

STARLINK-314521 59527U 24073S   26264.13811038  .00029251  00000+0  10617-2 0  99942 59527  43.0048 294.5084 0002371 217.9636 142.1049 15.27782347136061

JSON: /api/v1/satellites/59527 · /tle

For live sub-satellite position, see the globe view (requires WebGL).

§ Visibility from observer

Set your observer location to see the next 7 days of passes ≥ 10°. The values pass through the URL so the page stays shareable.

No JS? Fill the form by hand. The geolocation button needs JavaScript.